| time (UTC) | temp F | wind direction | speed MPH | gust MPH | rain 1hr in | rain 24hr in | rain mn in | humidity % | barometer mb |
| 20260503215905 | 53 | 271 | 13.0 | 23.0 | 0.00 | 0.00 | 0.00 | 72 | 1012.1 |
| 20260503215406 | 53 | 261 | 14.0 | 30.0 | 0.00 | 0.00 | 0.00 | 72 | 1012.1 |
| 20260503213906 | 53 | 250 | 16.0 | 30.0 | 0.00 | 0.00 | 0.00 | 71 | 1012.1 |
| 20260503213406 | 53 | 261 | 17.0 | 35.0 | 0.00 | 0.00 | 0.00 | 71 | 1011.9 |
| 20260503212905 | 52 | 260 | 18.0 | 38.0 | 0.00 | 0.00 | 0.00 | 72 | 1012.0 |
| 20260503212406 | 52 | 261 | 17.0 | 30.0 | 0.00 | 0.00 | 0.00 | 72 | 1011.9 |
| 20260503211905 | 52 | 268 | 19.0 | 40.0 | 0.00 | 0.00 | 0.00 | 71 | 1011.8 |
| 20260503211406 | 53 | 255 | 18.0 | 30.0 | 0.00 | 0.00 | 0.00 | 72 | 1011.9 |
| 20260503210906 | 53 | 259 | 21.0 | 39.0 | 0.00 | 0.00 | 0.00 | 72 | 1011.8 |
| 20260503210406 | 53 | 258 | 21.0 | 39.0 | 0.00 | 0.00 | 0.00 | 72 | 1011.7 |
| 20260503205905 | 53 | 266 | 20.0 | 41.0 | 0.00 | 0.00 | 0.00 | 73 | 1011.8 |
| 20260503205406 | 52 | 266 | 21.0 | 40.0 | 0.00 | 0.00 | 0.00 | 73 | 1011.7 |
| 20260503204905 | 52 | 263 | 22.0 | 38.0 | 0.00 | 0.00 | 0.00 | 73 | 1011.7 |
| 20260503203905 | 53 | 257 | 17.0 | 38.0 | 0.00 | 0.00 | 0.00 | 72 | 1011.7 |
| 20260503202906 | 53 | 263 | 17.0 | 28.0 | 0.00 | 0.00 | 0.00 | 73 | 1011.8 |
| 20260503201905 | 52 | 252 | 14.0 | 26.0 | 0.00 | 0.00 | 0.00 | 74 | 1011.9 |
| 20260503201405 | 52 | 243 | 14.0 | 30.0 | 0.00 | 0.00 | 0.00 | 74 | 1011.9 |
| 20260503200905 | 51 | 251 | 14.0 | 26.0 | 0.00 | 0.01 | 0.00 | 75 | 1011.9 |
| 20260503200406 | 51 | 239 | 16.0 | 35.0 | 0.00 | 0.01 | 0.00 | 75 | 1011.9 |
| 20260503195406 | 51 | 243 | 12.0 | 24.0 | 0.00 | 0.01 | 0.00 | 75 | 1012.1 |
| 20260503194906 | 51 | 249 | 12.0 | 28.0 | 0.00 | 0.01 | 0.00 | 75 | 1012.2 |
| 20260503194405 | 51 | 252 | 18.0 | 38.0 | 0.00 | 0.01 | 0.00 | 73 | 1012.2 |
| 20260503193905 | 52 | 252 | 15.0 | 26.0 | 0.00 | 0.01 | 0.00 | 74 | 1012.3 |
| 20260503193405 | 52 | 250 | 14.0 | 29.0 | 0.00 | 0.01 | 0.00 | 75 | 1012.4 |
| 20260503192906 | 52 | 242 | 13.0 | 30.0 | 0.00 | 0.01 | 0.00 | 73 | 1012.5 |
| 20260503192405 | 52 | 252 | 14.0 | 32.0 | 0.00 | 0.01 | 0.00 | 72 | 1012.6 |
| 20260503191906 | 53 | 246 | 13.0 | 26.0 | 0.00 | 0.01 | 0.00 | 71 | 1012.8 |
| 20260503191406 | 53 | 247 | 14.0 | 30.0 | 0.00 | 0.01 | 0.00 | 71 | 1012.8 |
| 20260503190905 | 54 | 228 | 15.0 | 28.0 | 0.00 | 0.01 | 0.00 | 70 | 1013.0 |
| 20260503190406 | 54 | 237 | 16.0 | 29.0 | 0.00 | 0.01 | 0.00 | 72 | 1013.1 |
| 20260503184906 | 53 | 243 | 16.0 | 36.0 | 0.00 | 0.01 | 0.00 | 72 | 1013.3 |
| 20260503183906 | 53 | 249 | 18.0 | 32.0 | 0.00 | 0.01 | 0.00 | 69 | 1013.3 |
| 20260503183405 | 54 | 227 | 14.0 | 28.0 | 0.00 | 0.01 | 0.00 | 69 | 1013.5 |
| 20260503182905 | 54 | 250 | 16.0 | 28.0 | 0.00 | 0.01 | 0.00 | 68 | 1013.4 |
| 20260503182406 | 54 | 253 | 11.0 | 32.0 | 0.00 | 0.01 | 0.00 | 69 | 1013.6 |
| 20260503181906 | 54 | 255 | 16.0 | 30.0 | 0.00 | 0.01 | 0.00 | 67 | 1013.6 |
| 20260503181405 | 55 | 253 | 17.0 | 30.0 | 0.00 | 0.01 | 0.00 | 66 | 1013.7 |
| 20260503180406 | 55 | 252 | 16.0 | 35.0 | 0.00 | 0.01 | 0.00 | 67 | 1013.9 |
| 20260503175906 | 54 | 238 | 14.0 | 26.0 | 0.00 | 0.01 | 0.00 | 68 | 1013.9 |
| 20260503174906 | 53 | 258 | 16.0 | 28.0 | 0.00 | 0.01 | 0.00 | 69 | 1013.9 |
| 20260503173905 | 52 | 231 | 12.0 | 21.0 | 0.00 | 0.01 | 0.00 | 73 | 1014.0 |
| 20260503173405 | 51 | 229 | 10.0 | 22.0 | 0.00 | 0.01 | 0.00 | 75 | 1014.1 |
| 20260503172906 | 51 | 223 | 13.0 | 22.0 | 0.00 | 0.01 | 0.00 | 75 | 1014.2 |
| 20260503172405 | 51 | 224 | 12.0 | 24.0 | 0.00 | 0.01 | 0.00 | 74 | 1014.3 |
| 20260503171906 | 50 | 209 | 9.0 | 17.0 | 0.00 | 0.01 | 0.00 | 76 | 1014.4 |
| 20260503171405 | 50 | 225 | 10.0 | 18.0 | 0.00 | 0.01 | 0.00 | 77 | 1014.5 |
| 20260503170905 | 50 | 237 | 11.0 | 22.0 | 0.00 | 0.01 | 0.00 | 77 | 1014.6 |
| 20260503170405 | 50 | 239 | 7.0 | 18.0 | 0.00 | 0.01 | 0.00 | 79 | 1014.6 |
| 20260503150906 | 48 | 237 | 7.0 | 16.0 | 0.00 | 0.01 | 0.00 | 82 | 1016.1 |
| 20260503150405 | 48 | 212 | 10.0 | 18.0 | 0.00 | 0.01 | 0.00 | 80 | 1016.2 |
| 20260503130905 | 47 | 275 | 9.0 | 17.0 | 0.00 | 0.01 | 0.00 | 71 | 1016.2 |
| 20260503110406 | 41 | 255 | 7.0 | 17.0 | 0.00 | 0.01 | 0.00 | 91 | 1015.8 |
| 20260503090405 | 36 | 258 | 3.0 | 9.0 | 0.00 | 0.01 | 0.00 | 88 | 1016.1 |
| 20260503081405 | 35 | 270 | 3.0 | 6.0 | 0.00 | 0.01 | 0.00 | 83 | 1016.3 |
| 20260503080905 | 35 | 270 | 3.0 | 6.0 | 0.00 | 0.01 | 0.00 | 83 | 1016.4 |
| 20260503080405 | 35 | 270 | 3.0 | 6.0 | 0.00 | 0.01 | 0.00 | 83 | 1016.3 |
| 20260503071905 | 34 | 292 | 3.0 | 6.0 | 0.00 | 0.01 | 0.00 | 77 | 1016.5 |
| 20260503071405 | 34 | 294 | 4.0 | 6.0 | 0.00 | 0.01 | 0.00 | 76 | 1016.5 |
| 20260503070905 | 34 | 296 | 5.0 | 6.0 | 0.00 | 0.01 | 0.00 | 75 | 1016.5 |
| 20260503070405 | 34 | 299 | 3.0 | 5.0 | 0.00 | 0.01 | 0.00 | 74 | 1016.5 |
| 20260503054905 | 35 | 281 | 5.0 | 9.0 | 0.00 | 0.01 | 0.00 | 75 | 1016.8 |
| 20260503054405 | 35 | 282 | 3.0 | 6.0 | 0.00 | 0.01 | 0.00 | 76 | 1017.0 |
| 20260503052904 | 35 | 284 | 5.0 | 6.0 | 0.00 | 0.01 | 0.00 | 78 | 1016.8 |
| 20260503052405 | 35 | 287 | 4.0 | 6.0 | 0.00 | 0.01 | 0.00 | 79 | 1016.8 |
| 20260503051905 | 35 | 288 | 3.0 | 6.0 | 0.00 | 0.01 | 0.00 | 80 | 1016.9 |
| 20260503050905 | 36 | 288 | 5.0 | 6.0 | 0.00 | 0.01 | 0.00 | 81 | 1017.0 |
| 20260503050405 | 36 | 288 | 4.0 | 7.0 | 0.00 | 0.01 | 0.00 | 82 | 1016.9 |
| 20260503045912 | 36 | 288 | 4.0 | 9.0 | 0.00 | 0.01 | 0.00 | 82 | 1017.0 |
| 20260503045412 | 36 | 294 | 5.0 | 7.0 | 0.00 | 0.01 | 0.00 | 83 | 1016.9 |
| 20260503044912 | 36 | 283 | 5.0 | 9.0 | 0.00 | 0.01 | 0.00 | 85 | 1017.1 |
| 20260503044411 | 36 | 283 | 5.0 | 9.0 | 0.00 | 0.01 | 0.00 | 86 | 1017.2 |
| 20260503043912 | 36 | 273 | 3.0 | 9.0 | 0.00 | 0.01 | 0.00 | 86 | 1017.2 |
| 20260503042912 | 37 | 269 | 2.0 | 5.0 | 0.00 | 0.01 | 0.00 | 86 | 1017.1 |
| 20260503042411 | 37 | 270 | 2.0 | 5.0 | 0.00 | 0.01 | 0.00 | 86 | 1017.1 |
| 20260503041912 | 37 | 270 | 3.0 | 6.0 | 0.00 | 0.01 | 0.00 | 86 | 1017.2 |
| 20260503041412 | 37 | 270 | 2.0 | 9.0 | 0.00 | 0.01 | 0.00 | 86 | 1017.3 |
| 20260503040412 | 37 | 270 | 2.0 | 5.0 | 0.00 | 0.01 | 0.00 | 86 | 1017.2 |
| 20260503035912 | 37 | 269 | 2.0 | 6.0 | 0.00 | 0.01 | 0.01 | 86 | 1017.2 |
| 20260503035412 | 37 | 270 | 3.0 | 6.0 | 0.00 | 0.01 | 0.01 | 86 | 1017.3 |
| 20260503034913 | 37 | 273 | 3.0 | 5.0 | 0.00 | 0.01 | 0.01 | 85 | 1017.4 |
| 20260503034412 | 37 | 274 | 2.0 | 6.0 | 0.00 | 0.01 | 0.01 | 85 | 1017.5 |
| 20260503033912 | 37 | 276 | 1.0 | 5.0 | 0.00 | 0.01 | 0.01 | 85 | 1017.4 |
| 20260503033412 | 37 | 276 | 1.0 | 5.0 | 0.00 | 0.01 | 0.01 | 84 | 1017.4 |
| 20260503032912 | 37 | 276 | 2.0 | 3.0 | 0.00 | 0.01 | 0.01 | 83 | 1017.4 |
| 20260503032412 | 37 | 276 | 2.0 | 5.0 | 0.00 | 0.01 | 0.01 | 83 | 1017.5 |
| 20260503031912 | 37 | 276 | 2.0 | 6.0 | 0.00 | 0.01 | 0.01 | 82 | 1017.6 |
| 20260503030912 | 37 | 276 | 2.0 | 5.0 | 0.00 | 0.01 | 0.01 | 82 | 1017.5 |
| 20260503030412 | 37 | 276 | 1.0 | 3.0 | 0.00 | 0.01 | 0.01 | 81 | 1017.5 |
| 20260503025912 | 37 | 276 | 2.0 | 5.0 | 0.00 | 0.01 | 0.01 | 80 | 1017.6 |
| 20260503025412 | 37 | 276 | 2.0 | 6.0 | 0.00 | 0.01 | 0.01 | 79 | 1017.7 |
| 20260503024412 | 38 | 280 | 1.0 | 3.0 | 0.00 | 0.01 | 0.01 | 78 | 1017.7 |
| 20260503023912 | 38 | 280 | 0.0 | 0.0 | 0.00 | 0.01 | 0.01 | 77 | 1017.7 |
| 20260503022911 | 39 | 280 | 0.0 | 0.0 | 0.00 | 0.01 | 0.01 | 77 | 1017.9 |
| 20260503022412 | 39 | 280 | 0.0 | 0.0 | 0.00 | 0.01 | 0.01 | 76 | 1017.9 |
| 20260503021911 | 39 | 280 | 0.0 | 0.0 | 0.00 | 0.01 | 0.01 | 76 | 1017.8 |
| 20260503021412 | 39 | 280 | 0.0 | 0.0 | 0.00 | 0.01 | 0.01 | 75 | 1017.8 |
| 20260503020912 | 39 | 280 | 0.0 | 0.0 | 0.00 | 0.01 | 0.01 | 76 | 1017.8 |
| 20260503020412 | 39 | 280 | 0.0 | 1.0 | 0.00 | 0.01 | 0.01 | 75 | 1017.8 |
| 20260503015912 | 39 | 280 | 1.0 | 3.0 | 0.00 | 0.01 | 0.01 | 74 | 1017.8 |
| 20260503014912 | 40 | 280 | 2.0 | 5.0 | 0.00 | 0.01 | 0.01 | 75 | 1017.7 |
| 20260503013912 | 40 | 280 | 1.0 | 6.0 | 0.00 | 0.01 | 0.01 | 75 | 1017.7 |
| 20260503013412 | 40 | 280 | 2.0 | 5.0 | 0.00 | 0.01 | 0.01 | 75 | 1017.7 |
| 20260503012912 | 40 | 280 | 2.0 | 5.0 | 0.00 | 0.01 | 0.01 | 75 | 1017.8 |
| 20260503012412 | 40 | 280 | 2.0 | 5.0 | 0.00 | 0.01 | 0.01 | 74 | 1017.8 |
| 20260503011912 | 41 | 280 | 2.0 | 6.0 | 0.00 | 0.01 | 0.01 | 75 | 1017.8 |
| 20260503011411 | 41 | 285 | 3.0 | 6.0 | 0.00 | 0.01 | 0.01 | 74 | 1017.7 |
| 20260503010911 | 41 | 286 | 2.0 | 5.0 | 0.00 | 0.01 | 0.01 | 74 | 1017.6 |
| 20260503010411 | 41 | 286 | 2.0 | 5.0 | 0.00 | 0.01 | 0.01 | 74 | 1017.6 |
| 20260503005912 | 41 | 286 | 2.0 | 5.0 | 0.00 | 0.01 | 0.01 | 74 | 1017.6 |
| 20260503005412 | 41 | 287 | 2.0 | 5.0 | 0.00 | 0.01 | 0.01 | 74 | 1017.7 |
| 20260503004911 | 41 | 287 | 2.0 | 5.0 | 0.00 | 0.01 | 0.01 | 73 | 1017.5 |
| 20260503004412 | 41 | 287 | 3.0 | 7.0 | 0.00 | 0.01 | 0.01 | 71 | 1017.5 |
| 20260503003411 | 41 | 281 | 4.0 | 7.0 | 0.00 | 0.01 | 0.01 | 71 | 1017.3 |
| 20260503002412 | 42 | 298 | 3.0 | 6.0 | 0.00 | 0.01 | 0.01 | 71 | 1017.4 |
| 20260503001411 | 42 | 275 | 5.0 | 10.0 | 0.00 | 0.01 | 0.01 | 68 | 1017.4 |
| 20260503000412 | 42 | 297 | 6.0 | 13.0 | 0.00 | 0.01 | 0.01 | 68 | 1017.5 |
| 20260502235912 | 42 | 311 | 7.0 | 15.0 | 0.00 | 0.01 | 0.01 | 68 | 1017.4 |
| 20260502235412 | 42 | 311 | 7.0 | 13.0 | 0.00 | 0.01 | 0.01 | 69 | 1017.5 |
| 20260502234912 | 42 | 335 | 7.0 | 13.0 | 0.00 | 0.01 | 0.01 | 69 | 1017.4 |
| 20260502234412 | 42 | 320 | 8.0 | 15.0 | 0.00 | 0.01 | 0.01 | 69 | 1017.3 |
| 20260502233912 | 42 | 320 | 7.0 | 17.0 | 0.00 | 0.01 | 0.01 | 69 | 1017.3 |
| 20260502233412 | 43 | 303 | 9.0 | 16.0 | 0.00 | 0.01 | 0.01 | 70 | 1017.3 |
| 20260502232912 | 43 | 335 | 13.0 | 17.0 | 0.00 | 0.01 | 0.01 | 70 | 1017.4 |
| 20260502232411 | 43 | 305 | 5.0 | 12.0 | 0.00 | 0.01 | 0.01 | 72 | 1017.4 |
| 20260502231911 | 43 | 298 | 5.0 | 10.0 | 0.00 | 0.01 | 0.01 | 72 | 1017.2 |
| 20260502231412 | 43 | 278 | 5.0 | 10.0 | 0.00 | 0.01 | 0.01 | 71 | 1017.2 |
| 20260502230912 | 43 | 283 | 5.0 | 10.0 | 0.00 | 0.01 | 0.01 | 72 | 1017.3 |
| 20260502230412 | 43 | 301 | 5.0 | 10.0 | 0.00 | 0.01 | 0.01 | 72 | 1017.2 |
| 20260502225912 | 43 | 287 | 5.0 | 10.0 | 0.00 | 0.01 | 0.01 | 73 | 1017.2 |
| 20260502224912 | 43 | 287 | 4.0 | 10.0 | 0.00 | 0.01 | 0.01 | 72 | 1017.2 |
| 20260502224412 | 43 | 282 | 9.0 | 13.0 | 0.00 | 0.01 | 0.01 | 70 | 1017.3 |
| 20260502223912 | 43 | 323 | 6.0 | 13.0 | 0.00 | 0.01 | 0.01 | 71 | 1017.2 |
| 20260502223412 | 43 | 317 | 6.0 | 15.0 | 0.00 | 0.01 | 0.01 | 71 | 1017.1 |
| 20260502222912 | 43 | 313 | 9.0 | 13.0 | 0.00 | 0.01 | 0.01 | 72 | 1017.2 |
| 20260502222411 | 43 | 287 | 7.0 | 13.0 | 0.00 | 0.01 | 0.01 | 73 | 1017.3 |
| 20260502221911 | 43 | 320 | 8.0 | 13.0 | 0.00 | 0.01 | 0.01 | 72 | 1017.2 |
| 20260502221412 | 43 | 323 | 8.0 | 13.0 | 0.00 | 0.01 | 0.01 | 73 | 1017.2 |
| 20260502220912 | 42 | 291 | 6.0 | 12.0 | 0.00 | 0.01 | 0.01 | 75 | 1017.2 |
| 20260502220411 | 42 | 210 | 1.0 | 5.0 | 0.00 | 0.01 | 0.01 | 80 | 1017.2 |